Regional Weather Roundup
Issued by NWS Kansas City/Pleasant Hill, MO

Home | Current Version | Previous Version | Text Only | Print | Product List | Glossary On
Versions: 1 2 3 4 5 6 7 8 9 10 11 12 13 14 15 16 17 18 19 20 21 22 23 24 25 26 27 28 29 30 31 32 33 34 35 36 37 38 39 40 41 42 43 44 45 46 47 48 49 50
667
ASUS43 KEAX 291210
RWREAX

WEATHER ROUNDUP FOR EASTERN KANSAS AND NORTHWEST MISSOURI
NATIONAL WEATHER SERVICE KANSAS CITY/PLEASANT HILL MO
700 AM CDT SUN MAY 29 2016

KSZ040-057-103>105-MOZ028-029-037-043-291300-
...KANSAS CITY METROPOLITAN AREA...

CITY           SKY/WX    TMP DP  RH WIND       PRES   REMARKS
K.C. INTL      MOSUNNY   62  59  90 S5        30.07R
6HR MIN TEMP:  58; 6HR MAX TEMP:  62;

K.C. DOWNTOWN  SUNNY     65  60  84 CALM      30.07R
6HR MIN TEMP:  62; 6HR MAX TEMP:  68;

LEES SUMMIT    SUNNY     64  59  83 SW6       30.08R
6HR MIN TEMP:  62; 6HR MAX TEMP:  66;

OLATHE - IXD   SUNNY     60  59  96 S5        30.08S
6HR MIN TEMP:  57; 6HR MAX TEMP:  63;

OLATHE - OJC   SUNNY     60  59  96 S3        30.08R
6HR MIN TEMP:  58; 6HR MAX TEMP:  62;

LAWRENCE       MOSUNNY   60  59  96 CALM      30.07R

$$

MOZ001>008-011>017-020>025-030>033-038>040-044>046-053-054-291300-
...NORTHERN AND CENTRAL MISSOURI...

CITY           SKY/WX    TMP DP  RH WIND       PRES   REMARKS
ST. JOSEPH     SUNNY     62  60  93 SW5       30.08R
6HR MIN TEMP:  58; 6HR MAX TEMP:  64;

MOSBY          SUNNY     59  59 100 CALM      30.07R
WARRENSBURG    SUNNY     61  59  94 S3        30.08S
WHITEMAN AFB   NOT AVBL
CLINTON        SUNNY     64  64 100 SW6       30.10R
SEDALIA        SUNNY     65  62  90 SW7       30.10R
6HR MIN TEMP:  63; 6HR MAX TEMP:  66;

WARSAW         NOT AVBL
CHILLICOTHE      N/A     62  59  90 CALM      30.07R
6HR MIN TEMP:  60; 6HR MAX TEMP:  66;

KIRKSVILLE     SUNNY     63  59  87 W5        30.07R
6HR MIN TEMP:  61; 6HR MAX TEMP:  65;


$$

MOZ041-047>049-056>058-063>065-088>090-097-291300-
...EASTERN AND SOUTHERN MISSOURI...

CITY           SKY/WX    TMP DP  RH WIND       PRES   REMARKS
ST. LOUIS INTL SUNNY     70  62  76 SW3       30.08R
6HR MIN TEMP:  66; 6HR MAX TEMP:  72;

SPIRIT OF STL  SUNNY     66  62  87 CALM      30.07R
COLUMBIA       SUNNY     64  63  96 S6        30.09R
JEFFERSON CITY SUNNY     64  62  93 CALM      30.08R
ROLLA          SUNNY     66  63  90 SW5       30.09R
SPRINGFIELD    SUNNY     64  62  93 S5        30.12R
BRANSON        PTSUNNY   66  66 100 S6        30.14R
JOPLIN         SUNNY     66  64  93 CALM      30.11R
WEST PLAINS    SUNNY     66  63  90 CALM      30.13R

$$

IAZ060-094-KSZ022-034>040-054-083-096-NEZ052-066-093-291300-
...KANSAS...SOUTHEAST NEBRASKA AND IOWA...

CITY           SKY/WX    TMP DP  RH WIND       PRES   REMARKS
TOPEKA         CLEAR     61  58  90 N5        30.07R
6HR MIN TEMP:  58; 6HR MAX TEMP:  62;

MANHATTAN      CLEAR     60  57  89 CALM      30.08R
EMPORIA        CLEAR     61  58  90 S8        30.09R
CHANUTE        CLEAR     62  60  93 CALM      30.10R FOG
WICHITA        PTCLDY    63  58  83 CALM      30.10R
OMAHA          CLOUDY    58  55  90 SE3       30.05R
LINCOLN        MOCLDY    58  56  93 CALM      30.07R
FALLS CITY     MOSUNNY   60  59  96 S5        30.06R
LAMONI         SUNNY     59  56  89 W5        30.06R
DES MOINES     MOSUNNY   60  56  86 W5        30.03R

$$





USA.gov is the U.S. government's official web portal to all federal, state and local government web resources and services.